Regional Weather Roundup
Issued by NWS

Home | Current Version | Previous Version | Graphics & Text | Print | Product List | Glossary On
Versions: 1 2 3 4 5 6 7 8 9 10 11 12 13 14 15 16 17 18 19 20 21 22 23 24 25 26 27 28 29 30 31 32 33 34 35 36 37 38 39 40 41 42 43 44 45 46 47 48
000
ASUS45 KCYS 140010
RWRWY

WYOMING REGIONAL WEATHER ROUNDUP
NATIONAL WEATHER SERVICE CHEYENNE WY
600 PM MDT SUN JUL 13 2014

NOTE:  "FAIR" INDICATES FEW OR NO CLOUDS BELOW 12,000 FEET
WITH NO SIGNIFICANT WEATHER AND/OR OBSTRUCTIONS TO VISIBILITY.

WYZ001-140100-
YELLOWSTONE NATIONAL PARK

CITY           SKY/WX    TMP DP  RH WIND       PRES   REMARKS
LK YELLOWSTONE   N/A     72  41  32 CALM      30.48S
6HR MIN TEMP:  63; 6HR MAX TEMP:  72;

W YELLOWSTONE  NOT AVBL

$$
WYZ002>013-054>058-071-098>099-140100-
NORTHERN WYOMING

CITY           SKY/WX    TMP DP  RH WIND       PRES   REMARKS
JACKSON        PTSUNNY   81  39  22 N7        30.33F
CODY           MOSUNNY   82  46  28 NE14      30.24F
GREYBULL       NOT AVBL
WORLAND        NOT AVBL
SHERIDAN       NOT AVBL
BUFFALO        MOSUNNY   82  40  22 N18G30    30.25F
6HR MIN TEMP:  79; 6HR MAX TEMP:  85;

GILLETTE       SUNNY     85  42  22 N15       30.18F
6HR MIN TEMP:  83; 6HR MAX TEMP:  88;

HULETT         FAIR      79  46  31 MISG      30.20
NEWCASTLE      FAIR      82  39  21 N15G22    30.16

$$
WYZ014>020-022>026-101>103-140100-
CENTRAL WYOMING

CITY           SKY/WX    TMP DP  RH WIND       PRES   REMARKS
BIG PINEY      NOT AVBL
PINEDALE       CLEAR     81  37  21 NW12G17   30.37S
DUBOIS         FAIR      77  43  29 E10G20    30.38S
LANDER         NOT AVBL
RIVERTON       NOT AVBL
CASPER         MOSUNNY   88  39  17 N14       30.22F
6HR MIN TEMP:  80; 6HR MAX TEMP:  89;

DOUGLAS        SUNNY     87  42  20 N14G22    30.20F
6HR MIN TEMP:  84; 6HR MAX TEMP:  89;


$$
WYZ021-027>030-104>119-140100-
SOUTHERN WYOMING

CITY           SKY/WX    TMP DP  RH WIND       PRES   REMARKS
EVANSTON       NOT AVBL
KEMMERER       CLEAR     82  32  16 NW6       30.37F
ROCK SPRINGS   NOT AVBL
DIXON          FAIR      87  39  18 N15G23    30.30S
RAWLINS        MOSUNNY   82  43  25 NW14G22   30.33F
6HR MIN TEMP:  75; 6HR MAX TEMP:  86;

SARATOGA       FAIR      81  43  26 N16       30.34F
LARAMIE        PTSUNNY   73  47  39 N14       30.36F
6HR MIN TEMP:  72; 6HR MAX TEMP:  77;

CHEYENNE       MOSUNNY   76  51  41 CALM      30.30F
6HR MIN TEMP:  50; 6HR MAX TEMP:  80; 6HR PCP:  1.32;

TORRINGTON     SUNNY     85  54  34 S7        30.14F
6HR MIN TEMP:  75; 6HR MAX TEMP:  86;


$$


USA.gov is the U.S. government's official web portal to all federal, state and local government web resources and services.